CYMHCYNA

Guest
Details From CYMH - Marys Harbour
To CYNA - NATASHQUAN
Flight Number -
Tags generated
Created
Modified
Stats Distance 259 nm / 480 km
Max Altitude 18,000 ft / 5,486 m
Waypoints 4
Social Downloads 0
Likes 0
Share VATSIM

Download

Looking for another format? Having issues loading an existing format? Contact us
Advertisement - Login to hide

Notes

Basic altitude profile: - Ascent Rate: 2500ft/min - Ascent Speed: 250kts - Cruise Altitude: 35000ft - Cruise Speed: 420kts - Descent Rate: 1500ft/min - Descent Speed: 250kts

Route

CYMH REDBY 5E17 YNA CYNA

ID Type Via Altitude Latitude Longitude Leg Dist Tot Dist Heading (true) Name
O CYMH APT - 0 ft / 0 m 52.30225˚ -55.84542˚ - 0 nm - Marys Harbour
REDBY FIX - 9,900 ft / 3,018 m 52.24944˚ -56.60166˚ 27 nm 27 nm 264° / 263° -
YNA VOR 5E17 (AWY-HI) 18,000 ft / 5,486 m 50.18361˚ -61.78083˚ 230 nm 258 nm 240° / 236° NATASH VOR-DME
O CYNA APT - 0 ft / 0 m 50.19008˚ -61.78895˚ 0 nm 259 nm 321° / 321° NATASHQUAN

Altitude Profile

Advertisement - Login to hide

Weather


0- 5 10 15 20 25 30 35+ Temperature / ° C

Clouds and Precipitation
Forecast for 2018-05-24 12:00 UTC. Updated 2 hours ago

Ground ~20,000 ft ~40,000 ft Winds

CYMH

Details ICAO CYMH (YMH)
Name Marys Harbour
Region Canada
Timezone America/St_Johns (UTC-2.5)
Stats Elevation 38 ft / 12 m (AMSL)
Location 52.302250° -55.845423°
Runways 1
Magnetic Variation 20.210° W

METAR

CYMH 241200Z AUTO 02013G22KT 9SM CLR M00/M08 A2996 RMK SLP149

Decode

TAF

TAF CYMH 240838Z 2409/2421 36008KT P6SM BKN200 BECMG 2411/2413 01010G20KT FM241700 01012G22KT P6SM BKN030 RMK FCST BASED ON AUTO OBS. NXT FCST BY 241400Z

Decode

Departure Runways

ID Width Length Bearing (true) Bearing (mag) Surface Threshold Offset Overrun Length
11 98 ft / 30 m 2,549 ft / 777 m 85.00° 105.21° Gravel 0 ft / 0 m 0 ft / 0 m
29 98 ft / 30 m 2,549 ft / 777 m 265.01° 285.22° Gravel 0 ft / 0 m 0 ft / 0 m

CYNA

Details ICAO CYNA (YNA)
Name NATASHQUAN
Region Canada
Timezone America/Montreal (UTC-4.0)
Stats Elevation 39 ft / 12 m (AMSL)
Location 50.190084° -61.788947°
Runways 1
Magnetic Variation 19.385° W

METAR

CYNA 241200Z AUTO 03008KT 350V050 9SM CLR 05/M07 A3003 RMK SLP171

Decode

TAF

TAF CYNA 240738Z 2408/2420 01008KT P6SM SKC BECMG 2413/2415 34010KT FM241800 29010KT P6SM BKN060 RMK FCST BASED ON AUTO OBS. NXT FCST BY 241400Z

Decode

Destination Runways

ID Width Length Bearing (true) Bearing (mag) Surface Threshold Offset Overrun Length
14 100 ft / 30 m 4,486 ft / 1,367 m 117.90° 137.29° Asphalt 0 ft / 0 m 0 ft / 0 m
32 100 ft / 30 m 4,486 ft / 1,367 m 297.91° 317.30° Asphalt 0 ft / 0 m 0 ft / 0 m